Regional Weather Roundup
Issued by NWS

Home | Current Version | Previous Version | Text Only | Print | Product List | Glossary On
Versions: 1 2 3 4 5 6 7 8 9 10 11 12 13 14 15 16 17 18 19 20 21 22 23 24 25 26 27 28 29 30 31 32 33 34 35 36 37 38 39 40 41 42 43 44 45 46 47 48 49 50
000
ASUS43 KBIS 111010
RWRND

NORTH DAKOTA REGIONAL WEATHER ROUNDUP
NATIONAL WEATHER SERVICE BISMARCK ND
500 AM CDT FRI JUL 11 2014

NOTE: "FAIR" INDICATES FEW OR NO CLOUDS BELOW 12,000 FEET WITH NO
SIGNIFICANT WEATHER AND/OR OBSTRUCTIONS TO VISIBILITY.


NDZ001>003-009>011-017-111100-
NORTHWEST NORTH DAKOTA

CITY           SKY/WX    TMP DP  RH WIND       PRES   REMARKS
WILLISTON      CLEAR     60  57  89 NW3       29.93R
MINOT          PTCLDY    64  61  90 NW9       29.85R
MINOT AFB      CLEAR     64  63  99 NW9       29.86R
$$

NDZ018>021-031>035-040>046-111100-
SOUTHWEST NORTH DAKOTA

CITY           SKY/WX    TMP DP  RH WIND       PRES   REMARKS
BISMARCK       CLEAR     63  32  31 NE7       29.83R
DICKINSON      CLEAR     62  60  93 NW8       29.89R
GARRISON         N/A     62  61  96 N9        29.83S
HETTINGER ARPT CLEAR     63  61  93 CALM      29.90S
$$

NDZ004>008-012>016-024-026-027-054-111100-
NORTHEAST NORTH DAKOTA

CITY           SKY/WX    TMP DP  RH WIND       PRES   REMARKS
GRAND FORKS    CLEAR     61  61 100 CALM      29.79R FOG
GRND FRKS AFB  CLEAR     60  60 100 CALM      29.80R
DEVILS LAKE    CLEAR     63  57  82 CALM      29.80R
$$

NDZ022-023-025-028>030-036>039-047>053-111100-
SOUTHEAST NORTH DAKOTA

CITY           SKY/WX    TMP DP  RH WIND       PRES   REMARKS
FARGO          PTCLDY    70  67  90 SE7       29.79R
JAMESTOWN      FOG       64  63  96 W5        29.81S VSB 1/4
$$




USA.gov is the U.S. government's official web portal to all federal, state and local government web resources and services.